DW6536 Weather Reports


Display with metric or nautical units.
time (UTC)temp
F
wind
direction
speed
MPH
gust
MPH
rain 1hr
in
rain 24hr
in
rain mn
in
humidity
%
barometer
mb
20260905150010 85 209 1.0 0.0 0.00 0.00 0.00 73 1012.4
20260905144506 83 197 2.0 0.0 0.00 0.00 0.00 77 1012.3
20260905143003 82 251 1.0 0.0 0.00 0.00 0.00 80 1012.3
20260905141603 81 153 1.0 0.0 0.00 0.00 0.00 83 1012.3
20260905140100 79 219 1.0 0.0 0.00 0.00 0.00 86 1012.1
20260905134602 79 189 1.0 0.0 0.00 0.00 0.00 87 1012.2
20260905133058 78 145 1.0 0.0 0.00 0.00 0.00 91 1011.9
20260905131553 77 167 0.0 0.0 0.00 0.00 0.00 92 1011.7
20260905130053 75 115 0.0 0.0 0.00 0.00 0.00 92 1011.5
20260905124551 75 115 0.0 0.0 0.00 0.00 0.00 91 1011.4
20260905123049 75 115 0.0 0.0 0.00 0.00 0.00 91 1011.4
20260905121549 75 115 0.0 0.0 0.00 0.00 0.00 90 1011.2
20260905120047 75 115 0.0 0.0 0.00 0.00 0.00 90 1010.9
20260905114546 75 115 0.0 0.0 0.00 0.00 0.00 90 1010.9
20260905113045 75 115 0.0 0.0 0.00 0.00 0.00 89 1010.9
20260905111543 76 115 0.0 0.0 0.00 0.00 0.00 89 1010.8
20260905110055 76 115 0.0 0.0 0.00 0.00 0.00 89 1010.7
20260905104541 76 115 0.0 0.0 0.00 0.00 0.00 89 1010.7
20260905103048 76 115 0.0 0.0 0.00 0.00 0.00 88 1010.6
20260905101551 77 115 0.0 0.0 0.00 0.00 0.00 87 1010.7
20260905100037 77 115 0.0 0.0 0.00 0.00 0.00 87 1010.6
20260905094536 77 115 0.0 0.0 0.00 0.00 0.00 87 1010.6
20260905093034 78 111 0.0 0.0 0.00 0.00 0.00 86 1010.4
20260905091533 78 209 0.0 0.0 0.00 0.00 0.00 86 1010.6
20260905090033 78 200 0.0 0.0 0.00 0.00 0.00 86 1010.6
20260905084530 78 201 0.0 0.0 0.00 0.00 0.00 85 1010.7
20260905083028 79 124 0.0 0.0 0.00 0.00 0.00 84 1010.6
20260905081529 79 201 0.0 0.0 0.00 0.00 0.00 84 1010.7
20260905080026 79 168 0.0 0.0 0.00 0.00 0.00 84 1010.8
20260905074532 79 211 1.0 0.0 0.00 0.00 0.00 84 1010.9
20260905073022 79 164 1.0 0.0 0.00 0.00 0.00 83 1011.0
20260905071521 80 133 0.0 0.0 0.00 0.00 0.00 82 1011.2
20260905070020 80 143 1.0 0.0 0.00 0.00 0.00 81 1011.2
20260905064518 80 228 1.0 0.0 0.00 0.00 0.00 80 1011.1
20260905063018 80 132 1.0 0.0 0.00 0.00 0.00 80 1011.1
20260905061516 80 161 1.0 0.0 0.00 0.00 0.00 79 1011.3
20260905060015 80 188 0.0 0.0 0.00 0.00 0.00 78 1011.3
20260905054516 80 137 0.0 0.0 0.00 0.00 0.00 77 1011.3
20260905053013 80 143 1.0 0.0 0.00 0.00 0.00 77 1011.2
20260905051513 81 136 1.0 0.0 0.00 0.00 0.00 76 1011.4
20260905050009 81 131 1.0 0.0 0.00 0.00 0.00 75 1011.4
20260905044510 81 163 1.0 0.0 0.00 0.00 0.00 74 1011.4
20260905043007 82 134 1.0 0.0 0.00 0.00 0.00 73 1011.3
20260905041508 82 172 1.0 0.0 0.00 0.00 0.00 73 1011.4
20260905040007 82 154 1.0 0.0 0.00 0.00 0.00 72 1011.3
20260905034510 82 104 2.0 0.0 0.00 0.00 0.00 71 1011.2
20260905033006 82 134 1.0 0.0 0.00 0.00 0.00 70 1011.1
20260905031505 82 122 0.0 0.0 0.00 0.00 0.00 70 1011.2
20260905030007 83 141 0.0 0.0 0.00 0.00 0.00 71 1010.9
20260905024508 83 117 1.0 0.0 0.00 0.00 0.00 71 1010.7
20260905023010 84 142 1.0 0.0 0.00 0.00 0.00 70 1010.6
20260905021506 84 117 1.0 0.0 0.00 0.00 0.00 70 1010.3
20260905020003 84 149 1.0 0.0 0.00 0.00 0.00 69 1010.3
20260905014503 85 141 2.0 0.0 0.00 0.00 0.00 68 1010.2
20260905013002 85 212 1.0 0.0 0.00 0.00 0.00 67 1010.2
20260905011501 86 133 1.0 0.0 0.00 0.00 0.00 65 1010.0
20260905010003 86 148 1.0 0.0 0.00 0.00 0.00 64 1009.9
20260905004631 86 128 1.0 0.0 0.00 0.00 0.00 64 1009.8
20260905003059 87 131 2.0 0.0 0.00 0.00 0.00 65 1009.5
20260905001559 87 183 3.0 0.0 0.00 0.00 0.00 64 1009.4
20260905000058 88 162 4.0 0.0 0.00 0.00 0.00 62 1009.4
20260904234558 90 122 3.0 0.0 0.00 0.00 0.00 60 1009.2
20260904233057 91 182 3.0 0.0 0.00 0.00 0.00 57 1009.1
20260904231557 93 118 4.0 0.0 0.00 0.00 0.00 54 1009.1
20260904230127 93 221 3.0 0.0 0.00 0.00 0.00 45 1009.3
20260904224601 94 230 3.0 0.0 0.00 0.00 0.00 42 1009.3
20260904223053 95 113 2.0 0.0 0.00 0.00 0.00 42 1009.4
20260904221553 95 147 2.0 0.0 0.00 0.00 0.00 42 1009.4
20260904220054 96 153 1.0 0.0 0.00 0.00 0.00 42 1009.4
20260904214549 95 222 2.0 0.0 0.00 0.00 0.00 41 1009.7
20260904213050 95 128 2.0 0.0 0.00 0.00 0.00 44 1009.9
20260904211543 94 197 2.0 0.0 0.00 0.00 0.00 47 1010.0
20260904210042 94 193 2.0 0.0 0.00 0.00 0.00 45 1010.1
20260904204540 92 180 3.0 0.0 0.00 0.00 0.00 48 1010.4
20260904203039 91 121 3.0 0.0 0.00 0.00 0.00 48 1010.5
20260904201538 93 257 3.0 0.0 0.00 0.00 0.00 51 1010.7
20260904200035 92 124 2.0 0.0 0.00 0.00 0.00 56 1010.9
20260904194531 91 133 3.0 0.0 0.00 0.00 0.00 62 1011.0
20260904193036 90 141 3.0 0.0 0.00 0.00 0.00 65 1011.2
20260904191527 88 148 3.0 0.0 0.00 0.00 0.00 68 1011.4
20260904190037 87 148 3.0 0.0 0.00 0.00 0.00 67 1011.7
20260904184528 88 120 2.0 0.0 0.00 0.00 0.00 67 1011.7
20260904183024 88 169 2.0 0.0 0.00 0.00 0.00 68 1011.8
20260904181524 88 112 2.0 0.0 0.00 0.00 0.00 65 1011.9
20260904180024 88 106 2.0 0.0 0.00 0.00 0.00 64 1012.0
20260904174523 89 174 1.0 0.0 0.00 0.00 0.00 67 1012.2
20260904173022 87 159 2.0 0.0 0.00 0.00 0.00 67 1012.3
20260904171520 87 228 2.0 0.0 0.00 0.00 0.00 69 1012.3
20260904170018 87 108 3.0 0.0 0.00 0.00 0.00 69 1012.5
20260904164517 87 162 2.0 0.0 0.00 0.00 0.00 69 1012.3
20260904163016 85 164 1.0 0.0 0.00 0.00 0.00 71 1012.3
20260904161513 86 291 2.0 0.0 0.00 0.00 0.00 71 1012.3
20260904160013 85 251 1.0 0.0 0.00 0.00 0.00 74 1012.2
20260904154509 84 207 1.0 0.0 0.00 0.00 0.00 76 1012.2
20260904153006 83 174 2.0 0.0 0.00 0.00 0.00 78 1012.1
20260904151504 83 212 2.0 0.0 0.00 0.00 0.00 78 1011.9